| time (UTC) | temp F | wind direction | speed knots | gust knots | rain 1hr in | rain 24hr in | rain mn in | humidity % | barometer mb |
| 20260506061533 | 57 | 205 | 0.9 | 7.0 | 0.00 | 0.00 | 0.00 | 78 | 1018.0 |
| 20260506050108 | 58 | 235 | 0.0 | 2.6 | 0.00 | 0.00 | 0.00 | 73 | 1017.3 |
| 20260506044530 | 59 | 260 | 0.9 | 3.5 | 0.00 | 0.00 | 0.00 | 70 | 1017.2 |
| 20260506043045 | 60 | 294 | 0.9 | 4.3 | 0.00 | 0.00 | 0.00 | 69 | 1017.0 |
| 20260506041537 | 61 | 296 | 0.9 | 6.1 | 0.00 | 0.00 | 0.00 | 67 | 1016.9 |
| 20260506040045 | 62 | 294 | 2.6 | 7.8 | 0.00 | 0.00 | 0.00 | 65 | 1016.6 |
| 20260506033030 | 64 | 280 | 3.5 | 7.8 | 0.00 | 0.00 | 0.00 | 61 | 1016.0 |
| 20260506031536 | 65 | 247 | 2.6 | 7.8 | 0.00 | 0.00 | 0.00 | 61 | 1015.8 |
| 20260506030037 | 65 | 262 | 2.6 | 7.0 | 0.00 | 0.00 | 0.00 | 60 | 1015.6 |
| 20260506024536 | 67 | 291 | 1.7 | 9.6 | 0.00 | 0.00 | 0.00 | 58 | 1015.4 |
| 20260506023033 | 69 | 292 | 3.5 | 8.7 | 0.00 | 0.00 | 0.00 | 56 | 1015.2 |
| 20260506021536 | 70 | 303 | 3.5 | 7.8 | 0.00 | 0.00 | 0.00 | 55 | 1015.1 |
| 20260506020036 | 72 | 287 | 3.5 | 8.7 | 0.00 | 0.00 | 0.00 | 52 | 1015.0 |
| 20260506014536 | 72 | 289 | 3.5 | 9.6 | 0.00 | 0.00 | 0.00 | 49 | 1014.9 |
| 20260506013110 | 73 | 253 | 4.3 | 10.4 | 0.00 | 0.00 | 0.00 | 48 | 1014.8 |
| 20260506010036 | 75 | 220 | 5.2 | 13.9 | 0.00 | 0.00 | 0.00 | 47 | 1014.6 |
| 20260506004537 | 75 | 214 | 5.2 | 14.8 | 0.00 | 0.00 | 0.00 | 47 | 1014.6 |
| 20260506001534 | 76 | 213 | 5.2 | 15.6 | 0.00 | 0.00 | 0.00 | 46 | 1014.6 |
| 20260506000037 | 77 | 231 | 4.3 | 9.6 | 0.00 | 0.00 | 0.00 | 46 | 1014.7 |
| 20260505234535 | 77 | 226 | 4.3 | 12.2 | 0.00 | 0.00 | 0.00 | 46 | 1014.8 |
| 20260505233037 | 76 | 247 | 3.5 | 8.7 | 0.00 | 0.00 | 0.00 | 47 | 1014.9 |
| 20260505231530 | 76 | 254 | 4.3 | 11.3 | 0.00 | 0.00 | 0.00 | 47 | 1014.8 |
| 20260505230038 | 76 | 229 | 3.5 | 8.7 | 0.00 | 0.00 | 0.00 | 48 | 1014.9 |
| 20260505223035 | 75 | 218 | 5.2 | 11.3 | 0.00 | 0.00 | 0.00 | 49 | 1015.1 |
| 20260505221537 | 75 | 227 | 4.3 | 11.3 | 0.00 | 0.00 | 0.00 | 49 | 1015.2 |
| 20260505220152 | 74 | 217 | 5.2 | 11.3 | 0.00 | 0.00 | 0.00 | 50 | 1015.4 |
| 20260505214537 | 74 | 212 | 5.2 | 11.3 | 0.00 | 0.00 | 0.00 | 50 | 1015.4 |
| 20260505213034 | 73 | 215 | 5.2 | 10.4 | 0.00 | 0.00 | 0.00 | 51 | 1015.5 |
| 20260505211536 | 73 | 218 | 5.2 | 13.9 | 0.00 | 0.00 | 0.00 | 51 | 1015.7 |
| 20260505210036 | 73 | 224 | 4.3 | 10.4 | 0.00 | 0.00 | 0.00 | 51 | 1015.8 |
| 20260505204533 | 73 | 217 | 5.2 | 10.4 | 0.00 | 0.00 | 0.00 | 50 | 1015.9 |
| 20260505203038 | 73 | 215 | 5.2 | 11.3 | 0.00 | 0.00 | 0.00 | 50 | 1016.0 |
| 20260505201532 | 72 | 210 | 4.3 | 12.2 | 0.00 | 0.00 | 0.00 | 51 | 1016.0 |
| 20260505200036 | 72 | 216 | 5.2 | 11.3 | 0.00 | 0.00 | 0.00 | 51 | 1016.1 |
| 20260505194609 | 71 | 222 | 5.2 | 13.0 | 0.00 | 0.00 | 0.00 | 52 | 1016.2 |
| 20260505193032 | 71 | 213 | 5.2 | 11.3 | 0.00 | 0.00 | 0.00 | 52 | 1016.3 |
| 20260505191605 | 70 | 220 | 5.2 | 12.2 | 0.00 | 0.00 | 0.00 | 52 | 1016.3 |
| 20260505190036 | 70 | 221 | 5.2 | 12.2 | 0.00 | 0.00 | 0.00 | 52 | 1016.5 |
| 20260505184534 | 70 | 214 | 5.2 | 12.2 | 0.00 | 0.00 | 0.00 | 53 | 1016.6 |
| 20260505183032 | 69 | 213 | 4.3 | 13.0 | 0.00 | 0.00 | 0.00 | 54 | 1016.6 |
| 20260505181530 | 68 | 224 | 5.2 | 10.4 | 0.00 | 0.00 | 0.00 | 55 | 1016.6 |
| 20260505180030 | 67 | 216 | 5.2 | 11.3 | 0.00 | 0.00 | 0.00 | 56 | 1016.6 |
| 20260505174611 | 66 | 218 | 5.2 | 13.0 | 0.00 | 0.00 | 0.00 | 56 | 1016.6 |
| 20260505173032 | 66 | 215 | 6.1 | 12.2 | 0.00 | 0.00 | 0.00 | 57 | 1016.6 |
| 20260505164535 | 64 | 212 | 5.2 | 12.2 | 0.00 | 0.00 | 0.00 | 60 | 1016.6 |
| 20260505163036 | 63 | 216 | 5.2 | 12.2 | 0.00 | 0.00 | 0.00 | 61 | 1016.5 |
| 20260505161536 | 63 | 216 | 5.2 | 13.0 | 0.00 | 0.00 | 0.00 | 61 | 1016.6 |
| 20260505150143 | 59 | 209 | 3.5 | 10.4 | 0.00 | 0.00 | 0.00 | 70 | 1016.5 |
| 20260505124536 | 56 | 200 | 3.5 | 6.1 | 0.00 | 0.00 | 0.00 | 78 | 1015.9 |
| 20260505123037 | 56 | 203 | 3.5 | 7.8 | 0.00 | 0.00 | 0.00 | 78 | 1015.9 |
| 20260505121535 | 56 | 208 | 3.5 | 9.6 | 0.00 | 0.00 | 0.00 | 77 | 1015.9 |
| 20260505114534 | 57 | 200 | 4.3 | 11.3 | 0.00 | 0.00 | 0.00 | 77 | 1015.8 |
| 20260505113035 | 57 | 207 | 4.3 | 13.0 | 0.00 | 0.00 | 0.00 | 76 | 1015.6 |
| 20260505101536 | 58 | 218 | 3.5 | 11.3 | 0.00 | 0.00 | 0.00 | 75 | 1015.2 |
| 20260505100046 | 59 | 204 | 3.5 | 10.4 | 0.00 | 0.00 | 0.00 | 75 | 1015.1 |
| 20260505094536 | 59 | 205 | 3.5 | 8.7 | 0.00 | 0.00 | 0.00 | 75 | 1015.0 |
| 20260505091536 | 60 | 206 | 4.3 | 10.4 | 0.00 | 0.00 | 0.00 | 74 | 1014.9 |
| 20260505083031 | 61 | 211 | 3.5 | 8.7 | 0.00 | 0.00 | 0.00 | 72 | 1014.6 |
| 20260505081536 | 61 | 212 | 3.5 | 8.7 | 0.00 | 0.00 | 0.00 | 72 | 1014.5 |
| 20260505080037 | 61 | 209 | 3.5 | 9.6 | 0.00 | 0.00 | 0.00 | 72 | 1014.6 |
| 20260505074533 | 62 | 200 | 0.9 | 7.0 | 0.00 | 0.00 | 0.00 | 71 | 1014.5 |
| 20260505071537 | 62 | 204 | 1.7 | 9.6 | 0.00 | 0.00 | 0.00 | 71 | 1014.3 |